KN6KS Weather Reports


Display with metric or nautical units.
time (UTC)temp
F
wind
direction
speed
MPH
gust
MPH
rain 1hr
in
rain 24hr
in
rain mn
in
humidity
%
barometer
mb
20260503213528 58 253 25.0 31.0 0.00 0.00 0.00 70 1009.7
20260503213024 58 222 28.0 34.0 0.00 0.00 0.00 69 1009.6
20260503212521 59 227 30.0 38.0 0.00 0.00 0.00 68 1009.9
20260503212019 58 191 24.0 30.0 0.00 0.00 0.00 70 1009.7
20260503211516 58 249 21.0 26.0 0.00 0.00 0.00 71 1009.7
20260503211011 59 254 21.0 30.0 0.00 0.00 0.00 69 1009.9
20260503210508 58 194 21.0 26.0 0.00 0.00 0.00 70 1009.7
20260503210004 58 243 26.0 32.0 0.00 0.00 0.00 69 1009.9
20260503205500 59 210 21.0 29.0 0.00 0.00 0.00 70 1010.0
20260503204956 60 225 22.0 26.0 0.00 0.00 0.00 68 1009.8
20260503204454 60 230 26.0 30.0 0.00 0.00 0.00 65 1009.9
20260503203950 60 216 15.0 18.0 0.00 0.00 0.00 65 1009.9
20260503203448 62 253 20.0 23.0 0.00 0.00 0.00 64 1009.9
20260503202944 61 229 27.0 29.0 0.00 0.00 0.00 63 1010.1
20260503202443 61 212 20.0 25.0 0.00 0.00 0.00 62 1009.9
20260503201941 61 251 24.0 26.0 0.00 0.00 0.00 63 1010.0
20260503201438 62 249 22.0 27.0 0.00 0.00 0.00 62 1010.2
20260503200936 62 218 15.0 20.0 0.00 0.00 0.00 60 1010.3
20260503200432 62 248 15.0 18.0 0.00 0.00 0.00 60 1010.2
20260503195928 62 248 17.0 21.0 0.00 0.00 0.00 61 1010.3
20260503195426 63 188 16.0 21.0 0.00 0.00 0.00 59 1010.3
20260503194922 63 241 14.0 16.0 0.00 0.00 0.00 58 1010.4
20260503194419 63 244 20.0 25.0 0.00 0.00 0.00 59 1010.5
20260503193915 63 200 16.0 18.0 0.00 0.00 0.00 59 1010.7
20260503193410 64 247 21.0 24.0 0.00 0.00 0.00 59 1010.6
20260503192906 64 211 17.0 23.0 0.00 0.00 0.00 57 1010.6
20260503192402 65 214 19.0 22.0 0.00 0.00 0.00 53 1010.7
20260503191858 65 195 15.0 17.0 0.00 0.00 0.00 53 1010.6
20260503191356 64 238 20.0 25.0 0.00 0.00 0.00 54 1010.5
20260503190852 65 252 21.0 24.0 0.00 0.00 0.00 55 1010.6
20260503190350 64 178 14.0 18.0 0.00 0.00 0.00 54 1010.6
20260503185846 63 247 21.0 23.0 0.00 0.00 0.00 55 1010.9
20260503185343 63 268 14.0 17.0 0.00 0.00 0.00 59 1010.9
20260503184843 62 225 22.0 26.0 0.00 0.00 0.00 61 1010.6
20260503184339 61 244 22.0 25.0 0.00 0.00 0.00 61 1011.1
20260503183835 60 228 24.0 29.0 0.00 0.00 0.00 64 1011.0
20260503183332 60 256 19.0 23.0 0.00 0.00 0.00 65 1011.2
20260503182830 60 212 23.0 25.0 0.00 0.00 0.00 66 1011.0
20260503182329 59 213 17.0 22.0 0.00 0.00 0.00 68 1011.1
20260503181825 59 245 24.0 34.0 0.00 0.00 0.00 69 1011.2
20260503181322 59 217 22.0 27.0 0.00 0.00 0.00 68 1011.3
20260503180819 59 252 26.0 30.0 0.00 0.00 0.00 68 1011.3
20260503180317 59 241 26.0 34.0 0.00 0.00 0.00 68 1011.2
20260503175813 59 241 23.0 27.0 0.00 0.00 0.00 68 1011.2
20260503175311 59 231 24.0 29.0 0.00 0.00 0.00 68 1011.3
20260503174806 58 204 18.0 21.0 0.00 0.00 0.00 69 1011.2
20260503174305 59 248 22.0 24.0 0.00 0.00 0.00 68 1011.0
20260503173800 59 226 29.0 33.0 0.00 0.00 0.00 70 1011.4
20260503173256 59 257 25.0 30.0 0.00 0.00 0.00 67 1011.2
20260503172753 60 260 19.0 22.0 0.00 0.00 0.00 66 1010.9
20260503172250 60 270 16.0 18.0 0.00 0.00 0.00 66 1011.2
20260503171746 59 251 17.0 24.0 0.00 0.00 0.00 67 1010.9
20260503171244 59 204 22.0 26.0 0.00 0.00 0.00 66 1010.6
20260503170741 59 229 26.0 30.0 0.00 0.00 0.00 67 1010.5
20260503170237 59 227 18.0 25.0 0.00 0.00 0.00 67 1010.7
20260503160159 60 243 7.0 8.0 0.00 0.00 0.00 64 1010.6
20260503150629 63 115 2.0 3.0 0.00 0.00 0.00 54 1011.0
20260503150125 62 100 2.0 2.0 0.00 0.00 0.00 60 1010.9
20260503131020 55 225 2.0 2.0 0.00 0.00 0.00 76 1010.7
20260503130517 54 240 2.0 2.0 0.00 0.00 0.00 77 1010.5
20260503110407 59 63 3.0 5.0 0.00 0.00 0.00 66 1010.4
20260503090258 60 210 3.0 3.0 0.00 0.00 0.00 70 1010.7
20260503081225 59 55 2.0 2.0 0.00 0.00 0.00 73 1011.4
20260503080721 59 205 2.0 2.0 0.00 0.00 0.00 72 1011.7
20260503080218 59 258 1.0 1.0 0.00 0.00 0.00 72 1011.6
20260503072655 60 55 4.0 6.0 0.00 0.00 0.00 69 1011.6
20260503072152 63 210 2.0 2.0 0.00 0.00 0.00 63 1011.7
20260503071649 63 257 4.0 5.0 0.00 0.00 0.00 63 1011.6
20260503071145 63 262 6.0 8.0 0.00 0.00 0.00 63 1011.5
20260503070642 63 236 8.0 9.0 0.00 0.00 0.00 63 1011.5
20260503070140 63 246 9.0 11.0 0.00 0.00 0.00 62 1011.5
20260503060104 64 244 7.0 7.0 0.00 0.00 0.00 58 1011.5
20260503055056 64 212 4.0 5.0 0.00 0.00 0.00 60 1011.5
20260503054551 64 213 6.0 7.0 0.00 0.00 0.00 59 1011.7
20260503054049 65 226 5.0 6.0 0.00 0.00 0.00 61 1011.6
20260503053547 65 236 7.0 9.0 0.00 0.00 0.00 61 1011.6
20260503053044 65 222 8.0 9.0 0.00 0.00 0.00 60 1011.6
20260503052541 66 239 9.0 9.0 0.00 0.00 0.00 59 1011.6
20260503052037 66 238 10.0 11.0 0.00 0.00 0.00 58 1011.4
20260503051533 66 222 9.0 10.0 0.00 0.00 0.00 58 1011.6
20260503051031 67 241 12.0 14.0 0.00 0.00 0.00 57 1011.5
20260503050526 67 255 14.0 15.0 0.00 0.00 0.00 56 1011.4
20260503050024 68 249 12.0 13.0 0.00 0.00 0.00 55 1011.3
20260503045521 68 227 15.0 17.0 0.00 0.00 0.00 56 1011.2
20260503045018 68 241 15.0 16.0 0.00 0.00 0.00 56 1011.4
20260503044515 67 222 13.0 16.0 0.00 0.00 0.00 57 1011.2
20260503044013 67 244 14.0 17.0 0.00 0.00 0.00 59 1011.2
20260503043508 68 252 13.0 16.0 0.00 0.00 0.00 58 1011.3
20260503043005 68 250 15.0 18.0 0.00 0.00 0.00 58 1011.2
20260503042502 68 254 15.0 17.0 0.00 0.00 0.00 57 1011.1
20260503041958 69 243 13.0 18.0 0.00 0.00 0.00 54 1011.1
20260503041455 69 245 11.0 15.0 0.00 0.00 0.00 53 1010.7
20260503040953 69 234 12.0 14.0 0.00 0.00 0.00 53 1011.0
20260503040450 69 239 14.0 15.0 0.00 0.00 0.00 51 1011.0
20260503035947 69 243 12.0 13.0 0.00 0.00 0.00 50 1010.7
20260503035444 70 241 12.0 16.0 0.00 0.00 0.00 48 1010.6
20260503034942 70 242 9.0 10.0 0.00 0.00 0.00 46 1010.6
20260503034439 71 236 12.0 14.0 0.00 0.00 0.00 41 1010.4
20260503033935 71 228 11.0 13.0 0.00 0.00 0.00 40 1010.4
20260503033433 72 241 11.0 13.0 0.00 0.00 0.00 39 1010.3
20260503032931 72 187 9.0 10.0 0.00 0.00 0.00 39 1010.2
20260503032429 72 172 8.0 10.0 0.00 0.00 0.00 42 1010.5
20260503031926 72 232 11.0 13.0 0.00 0.00 0.00 40 1010.0
20260503031424 72 234 9.0 9.0 0.00 0.00 0.00 38 1010.2
20260503030920 73 212 12.0 14.0 0.00 0.00 0.00 36 1010.0
20260503030417 73 240 11.0 14.0 0.00 0.00 0.00 36 1010.0
20260503025914 73 256 13.0 16.0 0.00 0.00 0.00 37 1010.0
20260503025411 73 256 10.0 15.0 0.00 0.00 0.00 39 1010.1
20260503024908 73 249 10.0 11.0 0.00 0.00 0.00 39 1009.8
20260503024404 73 233 10.0 13.0 0.00 0.00 0.00 37 1009.5
20260503023901 74 236 11.0 14.0 0.00 0.00 0.00 36 1009.5
20260503023358 74 265 11.0 13.0 0.00 0.00 0.00 36 1009.6
20260503022856 74 217 9.0 10.0 0.00 0.00 0.00 35 1009.3
20260503022350 75 173 10.0 13.0 0.00 0.00 0.00 33 1009.6
20260503021846 75 224 8.0 9.0 0.00 0.00 0.00 30 1009.6
20260503021337 76 251 10.0 11.0 0.00 0.00 0.00 30 1009.3
20260503020834 76 238 14.0 16.0 0.00 0.00 0.00 28 1009.2
20260503020333 76 230 17.0 22.0 0.00 0.00 0.00 27 1009.6
20260503015829 76 243 12.0 15.0 0.00 0.00 0.00 30 1009.6
20260503015325 77 247 12.0 14.0 0.00 0.00 0.00 29 1009.5
20260503014821 77 239 13.0 15.0 0.00 0.00 0.00 30 1009.5
20260503014319 77 194 19.0 23.0 0.00 0.00 0.00 27 1009.2
20260503013816 77 242 18.0 21.0 0.00 0.00 0.00 28 1009.5
20260503013314 78 217 17.0 21.0 0.00 0.00 0.00 28 1009.3
20260503012810 77 219 10.0 14.0 0.00 0.00 0.00 26 1009.3
20260503012308 78 245 16.0 21.0 0.00 0.00 0.00 26 1009.5
20260503011805 78 251 12.0 15.0 0.00 0.00 0.00 26 1009.2
20260503011301 78 242 12.0 16.0 0.00 0.00 0.00 26 1009.3
20260503010758 78 221 21.0 25.0 0.00 0.00 0.00 25 1009.0
20260503010255 79 205 17.0 23.0 0.00 0.00 0.00 25 1009.2
20260503005752 79 245 14.0 18.0 0.00 0.00 0.00 24 1009.3
20260503005250 80 248 19.0 23.0 0.00 0.00 0.00 25 1009.2
20260503004745 79 219 21.0 25.0 0.00 0.00 0.00 24 1009.2
20260503004244 80 239 14.0 20.0 0.00 0.00 0.00 23 1009.3
20260503003740 80 220 14.0 16.0 0.00 0.00 0.00 23 1008.9
20260503003238 80 228 21.0 24.0 0.00 0.00 0.00 23 1009.3
20260503002734 80 254 10.0 11.0 0.00 0.00 0.00 23 1009.3
20260503002231 80 257 16.0 21.0 0.00 0.00 0.00 22 1009.5
20260503001727 80 235 16.0 21.0 0.00 0.00 0.00 22 1009.3
20260503001224 80 192 15.0 20.0 0.00 0.00 0.00 22 1009.2
20260503000722 80 234 18.0 22.0 0.00 0.00 0.00 21 1009.2
20260503000219 80 254 13.0 17.0 0.00 0.00 0.00 22 1009.2
20260502235716 81 242 18.0 23.0 0.00 0.00 0.00 21 1009.5
20260502235214 81 232 20.0 24.0 0.00 0.00 0.00 21 1009.7
20260502234709 81 272 17.0 21.0 0.00 0.00 0.00 21 1009.6
20260502234207 81 220 14.0 17.0 0.00 0.00 0.00 20 1009.7
20260502233703 82 260 18.0 23.0 0.00 0.00 0.00 20 1009.6
20260502233200 82 249 17.0 20.0 0.00 0.00 0.00 20 1009.5
20260502232655 81 247 19.0 23.0 0.00 0.00 0.00 21 1009.6
20260502232153 81 244 18.0 21.0 0.00 0.00 0.00 21 1009.6
20260502231649 82 266 16.0 18.0 0.00 0.00 0.00 21 1009.6
20260502231147 82 247 14.0 16.0 0.00 0.00 0.00 21 1009.6
20260502230646 82 301 18.0 22.0 0.00 0.00 0.00 21 1009.6
20260502230144 81 236 17.0 22.0 0.00 0.00 0.00 21 1010.0
20260502225639 81 222 17.0 20.0 0.00 0.00 0.00 21 1009.9
20260502225137 82 251 15.0 20.0 0.00 0.00 0.00 21 1010.2
20260502224633 81 238 12.0 16.0 0.00 0.00 0.00 22 1010.1
20260502224129 82 252 15.0 17.0 0.00 0.00 0.00 23 1010.0
20260502223627 82 262 19.0 23.0 0.00 0.00 0.00 22 1010.4
20260502223125 82 236 20.0 22.0 0.00 0.00 0.00 22 1010.6
20260502222623 82 235 14.0 16.0 0.00 0.00 0.00 22 1010.4
20260502222119 83 215 13.0 15.0 0.00 0.00 0.00 21 1010.7
20260502221614 82 228 13.0 15.0 0.00 0.00 0.00 22 1010.9
20260502221112 84 231 15.0 17.0 0.00 0.00 0.00 23 1010.6
20260502220608 83 285 11.0 13.0 0.00 0.00 0.00 24 1010.6
20260502220104 82 235 12.0 15.0 0.00 0.00 0.00 24 1010.6
20260502215602 82 239 8.0 11.0 0.00 0.00 0.00 23 1011.3
20260502215058 83 234 10.0 13.0 0.00 0.00 0.00 24 1011.1
20260502214555 82 216 11.0 13.0 0.00 0.00 0.00 23 1011.3
20260502214053 82 239 8.0 8.0 0.00 0.00 0.00 24 1011.1